Location: Bois de la Silve
(44.4667°N, 6.7833°E)
Time: 04:46:06
(UTC+00:00)

Cosmos 2061 Rocket - Pass Details

Date: 14 July 2020
Orbit: 965 x 1014 km, 82.9° (Epoch: 06 August)

Event Time Altitude Azimuth Distance (km) Brightness Sun altitude
Exits shadow 01:41:57 29° 206° (SSW) 1,734 4.7 -18.2°
Maximum altitude 01:45:18 66° 280° (W) 1,078 4.1 -17.9°
Drops below altitude 10° 01:51:35 10° 3° (N) 2,751 7.3 -17.3°
Sets 01:54:08 0° 6° (N) 3,696 8.2 -17.0°
